Date String (YYYY-MM-DD hh:mm:ss) UTC,Instrument flags,Ambient pressure (hPa),Sample flow (lpm),Bypass flow (lpm),Sample temperature (°C),Ambient temperature (°C),ASC tube jacket temperature (°C),LED temperature (°C),Box temperature (°C),Sample RH (%),Span deviation,Mass concentration (μg/m³),Mass concentration (μg/m³),Mass concentration (μg/m³)
DateTimeUTC,F1_M11,P_M11,Q1_M11,Q2_M11,T1_M11,T2_M11,T3_M11,T4_M11,T5_M11,U1_M11,ZSPAN_M11,X0_M11,X2_M11,X1_M11
2022-05-26 08:00:00,,0825.7,5.00,0.00,29.4,28.1,00.0,38.4,31.2,13.2,0000.0,0006.29,0003.04,0002.24
2022-05-26 08:01:00,,0825.7,4.99,0.00,29.4,28.1,00.0,38.4,31.2,13.2,0000.0,0006.32,0002.99,0002.23
2022-05-26 08:02:00,,0825.8,4.99,0.00,29.4,28.1,00.0,38.4,31.2,13.2,0000.0,0006.21,0002.93,0002.22
2022-05-26 08:03:00,,0825.8,4.99,0.00,29.4,28.1,00.0,38.4,31.2,13.2,0000.0,0006.30,0002.94,0002.21
2022-05-26 08:04:00,,0825.9,5.01,0.00,29.4,28.1,00.0,38.4,31.2,13.2,0000.0,0006.29,0002.95,0002.21
2022-05-26 08:05:00,,0825.9,4.99,0.00,29.4,28.1,00.0,38.4,31.2,13.2,0000.0,0006.61,0003.03,0002.22
2022-05-26 08:06:00,,0825.9,4.99,0.00,29.4,28.1,00.0,38.4,31.1,13.2,0000.0,0006.08,0003.07,0002.22
2022-05-26 08:07:00,,0825.9,5.00,0.00,29.4,28.1,00.0,38.4,31.1,13.2,0000.0,0005.53,0002.99,0002.20
2022-05-26 08:08:00,,0825.9,5.00,0.00,29.4,28.1,00.0,38.4,31.2,13.2,0000.0,0005.40,0002.94,0002.19
2022-05-26 08:09:00,,0825.9,5.01,0.00,29.4,28.1,00.0,38.4,31.1,13.2,0000.0,0005.46,0002.96,0002.18
2022-05-26 08:10:00,,0825.9,5.00,0.00,29.4,28.1,00.0,38.3,31.1,13.2,0000.0,0005.58,0002.96,0002.18
2022-05-26 08:11:00,,0825.9,4.99,0.00,29.4,28.1,00.0,38.3,31.1,13.2,0000.0,0006.29,0003.03,0002.18
2022-05-26 08:12:00,,0825.8,4.99,0.00,29.3,28.0,00.0,38.3,31.1,13.2,0000.0,0006.17,0003.02,0002.17
2022-05-26 08:13:00,,0825.8,4.99,0.00,29.3,28.0,00.0,38.3,31.1,13.2,0000.0,0006.93,0003.07,0002.17
2022-05-26 08:14:00,,0825.9,5.01,0.00,29.3,28.0,00.0,38.3,31.1,13.3,0000.0,0007.77,0003.09,0002.19
2022-05-26 08:15:00,,0825.9,5.01,0.00,29.3,28.0,00.0,38.3,31.1,13.3,0000.0,0008.34,0003.09,0002.20
2022-05-26 08:16:00,,0825.9,4.98,0.00,29.3,28.0,00.0,38.3,31.1,13.3,0000.0,0008.33,0003.06,0002.19
2022-05-26 08:17:00,,0825.9,5.00,0.00,29.3,28.0,00.0,38.3,31.1,13.3,0000.0,0008.30,0002.94,0002.18
2022-05-26 08:18:00,,0825.9,5.00,0.00,29.3,28.0,00.0,38.3,31.1,13.3,0000.0,0008.67,0002.97,0002.18
2022-05-26 08:19:00,,0825.9,5.01,0.00,29.3,27.9,00.0,38.3,31.1,13.2,0000.0,0008.79,0003.01,0002.19
2022-05-26 08:20:00,,0825.8,5.01,0.00,29.3,27.9,00.0,38.3,31.0,13.2,0000.0,0008.82,0003.01,0002.19
2022-05-26 08:21:00,,0825.8,5.01,0.00,29.3,27.9,00.0,38.3,31.0,13.2,0000.0,0008.87,0003.04,0002.20
2022-05-26 08:22:00,,0825.8,4.99,0.00,29.3,27.9,00.0,38.3,31.0,13.2,0000.0,0009.00,0003.00,0002.21
2022-05-26 08:23:00,,0825.9,5.01,0.00,29.3,27.9,00.0,38.2,31.0,13.3,0000.0,0009.34,0003.03,0002.24
2022-05-26 08:24:00,,0825.8,4.99,0.00,29.3,27.9,00.0,38.2,31.0,13.3,0000.0,0009.34,0003.06,0002.27
2022-05-26 08:25:00,,0825.9,5.00,0.00,29.2,27.9,00.0,38.2,31.0,13.3,0000.0,0009.22,0003.06,0002.28
2022-05-26 08:26:00,,0825.8,5.00,0.00,29.2,27.9,00.0,38.2,31.0,13.3,0000.0,0008.46,0003.06,0002.29
2022-05-26 08:27:00,,0825.8,4.99,0.00,29.2,27.9,00.0,38.2,31.0,13.4,0000.0,0008.40,0003.07,0002.30
2022-05-26 08:28:00,,0825.8,5.01,0.00,29.2,27.9,00.0,38.2,31.0,13.4,0000.0,0008.71,0003.09,0002.31
2022-05-26 08:29:00,,0825.8,5.01,0.00,29.2,27.9,00.0,38.2,31.0,13.4,0000.0,0008.19,0003.09,0002.32
2022-05-26 08:30:00,,0825.8,5.00,0.00,29.2,27.9,00.0,38.2,31.0,13.6,0000.0,0008.12,0003.08,0002.34
2022-05-26 08:31:00,,0825.7,5.00,0.00,29.2,27.9,00.0,38.2,31.0,13.5,0000.0,0008.07,0003.08,0002.36
2022-05-26 08:32:00,,0825.7,4.99,0.00,29.2,27.9,00.0,38.2,31.0,13.4,0000.0,0008.02,0003.08,0002.37
2022-05-26 08:33:00,,0825.7,5.00,0.00,29.2,27.9,00.0,38.2,31.0,13.3,0000.0,0007.58,0003.07,0002.37
2022-05-26 08:34:00,,0825.8,5.01,0.00,29.2,27.8,00.0,38.2,30.9,13.3,0000.0,0006.94,0003.05,0002.37
2022-05-26 08:35:00,,0825.7,5.01,0.00,29.2,27.8,00.0,38.2,30.9,13.3,0000.0,0006.96,0003.03,0002.36
2022-05-26 08:36:00,,0825.7,4.98,0.00,29.1,27.8,00.0,38.1,30.9,13.2,0000.0,0006.57,0002.98,0002.36
2022-05-26 08:37:00,,0825.7,5.00,0.00,29.1,27.8,00.0,38.1,30.9,13.3,0000.0,0006.22,0002.99,0002.37
2022-05-26 08:38:00,,0825.8,5.00,0.00,29.1,27.8,00.0,38.1,30.9,13.4,0000.0,0006.22,0002.98,0002.36
2022-05-26 08:39:00,,0825.8,5.01,0.00,29.1,27.7,00.0,38.1,30.9,13.8,0000.0,0005.72,0003.01,0002.35
2022-05-26 08:40:00,,0825.8,4.98,0.00,29.1,27.7,00.0,38.1,30.9,14.1,0000.0,0006.32,0003.05,0002.37
2022-05-26 08:41:00,,0825.8,5.00,0.00,29.1,27.7,00.0,38.1,30.9,14.2,0000.0,0006.70,0003.08,0002.37
2022-05-26 08:42:00,,0825.7,5.01,0.00,29.1,27.7,00.0,38.1,30.8,13.8,0000.0,0006.80,0003.10,0002.36
2022-05-26 08:43:00,,0825.8,4.98,0.00,29.1,27.7,00.0,38.1,30.8,13.7,0000.0,0007.59,0003.11,0002.35
2022-05-26 08:44:00,,0825.8,5.01,0.00,29.1,27.7,00.0,38.1,30.8,13.4,0000.0,0007.72,0003.12,0002.35
2022-05-26 08:45:00,,0825.8,5.00,0.00,29.1,27.7,00.0,38.1,30.8,13.4,0000.0,0008.03,0003.16,0002.35
2022-05-26 08:46:00,,0825.9,5.01,0.00,29.0,27.7,00.0,38.1,30.8,13.6,0000.0,0008.03,0003.17,0002.35
2022-05-26 08:47:00,,0825.9,5.00,0.00,29.0,27.7,00.0,38.0,30.8,13.8,0000.0,0007.82,0003.21,0002.34
2022-05-26 08:48:00,,0825.9,4.99,0.00,29.0,27.7,00.0,38.0,30.8,13.9,0000.0,0007.82,0003.21,0002.33
2022-05-26 08:49:00,,0825.9,5.00,0.00,29.0,27.7,00.0,38.0,30.8,14.1,0000.0,0007.92,0003.19,0002.32
2022-05-26 08:50:00,,0825.9,5.00,0.00,29.0,27.6,00.0,38.0,30.8,14.2,0000.0,0007.90,0003.18,0002.31
2022-05-26 08:51:00,,0825.9,5.01,0.00,29.0,27.6,00.0,38.0,30.8,13.9,0000.0,0007.23,0003.15,0002.30
2022-05-26 08:52:00,,0825.9,4.99,0.00,29.0,27.6,00.0,38.0,30.8,13.8,0000.0,0006.85,0003.12,0002.28
2022-05-26 08:53:00,,0825.9,5.00,0.00,29.0,27.6,00.0,38.0,30.8,13.7,0000.0,0006.61,0003.05,0002.24
2022-05-26 08:54:00,,0825.9,5.00,0.00,29.0,27.6,00.0,38.0,30.7,13.5,0000.0,0005.51,0002.94,0002.22
2022-05-26 08:55:00,,0825.9,5.00,0.00,29.0,27.6,00.0,38.0,30.7,13.5,0000.0,0005.29,0002.90,0002.19
2022-05-26 08:56:00,,0825.8,5.00,0.00,29.0,27.6,00.0,38.0,30.7,13.5,0000.0,0004.48,0002.79,0002.16
2022-05-26 08:57:00,,0825.9,5.00,0.00,29.0,27.6,00.0,38.0,30.7,13.7,0000.0,0004.65,0002.74,0002.13
2022-05-26 08:58:00,,0825.9,5.01,0.00,28.9,27.6,00.0,37.9,30.7,13.9,0000.0,0005.29,0002.72,0002.11
2022-05-26 08:59:00,,0825.9,5.00,0.00,28.9,27.6,00.0,37.9,30.7,13.9,0000.0,0005.25,0002.67,0002.09
